Vorticity
4 3 3 3 4 4 4 4 4 3 3 4 3 4 2 5 4 4 4 2 5 5 6 5 7 6 6 8 9 7 7 6 4 6 8 11 8 11 11 9 9 8 10
3 3 4 3 4 4 4 4 4 4 4 4 3 4 3 5 5 4 4 1 5 6 7 5 8 6 7 9 8 8 6 4 7 12 5 7 7 10 9 13 14 12 8
4 4 4 4 4 4 4 4 4 4 5 4 4 4 4 6 4 3 4 0 5 7 6 7 8 8 7 9 9 7 5 7 11 4 5 6 7 7 7 3 6 7 10
4 4 4 4 4 4 4 4 4 4 5 4 5 3 5 6 5 3 3 1 3 6 7 8 9 9 7 10 10 5 9 10 5 5 6 6 6 9 5 6 3 3 8
2 3 3 3 3 3 4 4 5 5 6 5 5 4 6 6 5 3 3 1 4 5 8 10 10 8 8 10 9 6 11 8 4 4 5 5 5 11 4 10 8 7 3
1 4 3 3 3 4 4 5 5 4 5 5 5 7 5 3 4 5 2 1 3 5 9 8 10 8 8 9 6 8 10 7 2 2 5 6 7 10 5 11 10 6 3
1 2 3 2 4 4 6 4 5 7 8 7 1 5 7 3 7 3 3 4 -3 10 10 11 10 8 10 11 7 9 9 7 1 1 3 5 10 10 11 15 5 4 13
2 0 2 3 4 6 5 5 5 4 2 3 3 4 5 6 4 6 4 4 3 11 10 10 4 9 10 11 6 9 7 7 2 2 4 7 9 11 13 9 7 10 15
-1 2 4 2 4 4 5 5 4 4 -1 3 8 3 6 8 6 6 3 3 8 12 9 14 -0 8 8 13 7 10 9 5 4 3 6 7 13 14 14 4 14 10 1
9 1 -4 6 3 2 -0 -0 1 1 2 8 3 5 7 5 8 5 -2 2 8 10 10 7 3 8 12 12 7 9 6 5 7 5 6 11 11 15 8 13 10 13 11
8 15 11 10 16 5 5 7 6 4 6 5 7 6 8 7 6 5 -9 8 11 10 9 6 3 9 15 8 7 9 2 8 5 8 11 14 13 9 14 6 9 3 5
8 24 2 0 -1 9 -1 4 5 8 5 -2 5 6 7 5 2 -7 15 2 15 8 9 5 5 14 12 7 11 6 9 2 8 8 15 12 8 12 8 8 9 5 8
1 10 24 -16 2 -2 3 3 4 2 1 9 7 10 7 4 -5 12 6 14 12 9 5 10 14 12 9 8 4 8 5 7 8 14 13 11 14 10 8 8 6 3 6
1 -3 -20 23 8 5 3 7 0 7 8 7 0 9 3 3 4 19 9 13 10 5 7 16 12 13 7 -0 10 6 6 9 14 13 11 12 11 7 8 11 8 11 6
30 57 46 31 8 14 10 5 0 3 -2 -2 18 4 3 1 17 12 10 8 6 9 12 14 12 13 6 3 10 6 10 11 12 12 9 9 7 10 10 9 7 7 9
0 9 7 8 5 4 -4 -6 17 18 11 9 5 0 9 17 10 8 8 6 8 12 13 15 13 10 0 11 7 7 11 11 12 9 9 9 10 10 6 7 6 10 6
11 3 4 6 8 7 7 8 6 6 8 1 -1 16 2 8 8 8 8 8 12 11 12 14 13 2 9 8 6 11 11 11 9 9 9 11 8 7 8 7 8 6 5
3 3 3 1 3 6 6 7 8 11 12 9 4 18 23 8 6 3 5 12 10 12 15 15 6 8 8 6 11 11 11 11 8 9 9 9 9 9 8 9 7 6 7
5 6 8 14 16 14 13 12 16 22 17 15 13 4 15 7 -6 5 10 12 15 15 15 7 8 10 6 10 10 10 10 8 9 9 8 8 9 7 8 8 5 5 8
8 10 9 7 6 6 6 7 10 8 9 7 8 10 12 12 15 10 17 12 13 15 1 14 10 6 9 10 10 11 9 9 9 7 9 9 9 8 5 4 6 7 6
7 8 8 9 7 8 13 14 11 3 10 10 13 11 12 14 8 12 6 14 7 8 17 10 6 8 10 10 10 9 9 9 6 10 9 10 9 7 7 7 7 7 7
12 14 12 16 26 17 15 13 11 11 9 10 5 1 -7 3 5 4 21 6 8 11 11 6 8 10 9 10 9 9 9 7 9 9 8 7 6 6 7 7 7 5 6
9 11 8 12 11 10 13 12 12 9 8 8 3 18 19 14 6 21 25 4 15 11 7 8 10 10 11 11 10 8 7 9 8 7 6 6 5 4 7 7 7 5 6
5 13 11 8 15 13 18 18 14 17 21 25 5 2 11 5 26 13 5 18 10 7 8 9 10 11 10 8 8 7 9 8 7 6 4 5 6 6 6 8 8 6 6
3 17 8 5 0 2 -3 11 -0 5 2 9 17 20 16 25 -2 11 15 8 8 9 9 10 10 9 8 8 8 10 8 7 5 6 7 8 7 7 6 8 8 7 8
6 19 19 2 17 11 23 -3 0 0 -3 12 7 14 3 12 14 15 7 9 8 9 9 9 7 8 9 8 9 7 7 6 7 8 7 7 9 10 8 9 8 7 10
Height
5870 5871 5873 5873 5874 5874 5874 5875 5874 5873 5873 5872 5871 5870 5869 5868 5867 5865 5864 5862 5859 5857 5854 5851 5849 5846 5843 5841 5838 5834 5831 5829 5826 5823 5820 5818 5815 5813 5810 5807 5805 5804 5802
5867 5868 5869 5870 5871 5871 5871 5871 5871 5871 5870 5869 5868 5867 5866 5865 5863 5862 5860 5858 5855 5853 5850 5847 5845 5841 5838 5836 5832 5830 5827 5824 5821 5818 5815 5812 5810 5807 5804 5802 5800 5798 5796
5863 5864 5865 5866 5867 5867 5867 5867 5867 5867 5867 5866 5865 5864 5862 5861 5860 5858 5856 5854 5852 5848 5845 5842 5840 5837 5834 5831 5828 5824 5821 5819 5816 5812 5810 5808 5804 5802 5799 5797 5795 5792 5790
5858 5859 5859 5860 5861 5862 5862 5863 5863 5863 5863 5862 5861 5860 5858 5857 5855 5853 5851 5849 5846 5843 5841 5837 5835 5832 5828 5825 5823 5820 5816 5813 5811 5808 5805 5803 5799 5796 5794 5791 5788 5786 5784
5852 5853 5854 5855 5856 5856 5857 5857 5858 5858 5857 5857 5856 5855 5854 5852 5850 5848 5845 5843 5840 5837 5834 5833 5829 5825 5822 5820 5817 5814 5812 5808 5805 5803 5799 5796 5793 5790 5787 5785 5782 5780 5777
5845 5847 5848 5850 5851 5851 5852 5852 5852 5852 5852 5852 5852 5850 5849 5847 5846 5843 5840 5838 5835 5832 5828 5825 5823 5818 5815 5813 5811 5808 5805 5803 5800 5798 5794 5790 5786 5783 5780 5777 5775 5772 5769
5840 5842 5842 5843 5845 5846 5847 5847 5846 5846 5846 5846 5846 5845 5844 5842 5840 5838 5834 5831 5829 5826 5821 5819 5816 5813 5810 5807 5805 5803 5800 5797 5793 5792 5789 5784 5780 5776 5773 5770 5767 5764 5762
5832 5833 5835 5837 5839 5840 5840 5840 5840 5840 5840 5840 5839 5839 5838 5837 5835 5832 5827 5825 5821 5818 5815 5812 5809 5806 5803 5801 5799 5796 5794 5791 5788 5783 5781 5778 5773 5769 5766 5763 5759 5756 5753
5825 5826 5828 5830 5830 5832 5832 5833 5833 5833 5833 5833 5833 5832 5831 5830 5827 5825 5822 5819 5815 5811 5807 5805 5802 5799 5796 5794 5792 5790 5787 5784 5781 5777 5772 5769 5765 5760 5758 5754 5751 5749 5745
5817 5819 5819 5820 5821 5823 5823 5824 5825 5826 5826 5826 5827 5824 5824 5822 5820 5819 5816 5813 5808 5804 5801 5798 5795 5793 5789 5787 5785 5783 5780 5778 5774 5770 5765 5760 5757 5754 5751 5748 5745 5741 5738
5809 5809 5811 5812 5813 5813 5815 5816 5817 5818 5819 5818 5818 5819 5816 5814 5812 5810 5808 5804 5802 5797 5793 5790 5787 5784 5782 5780 5778 5775 5773 5770 5767 5763 5758 5753 5749 5746 5744 5742 5739 5736 5733
5800 5801 5804 5805 5806 5806 5806 5807 5808 5810 5810 5810 5809 5808 5808 5806 5804 5801 5799 5796 5792 5789 5785 5782 5778 5776 5774 5773 5770 5769 5765 5762 5759 5755 5750 5747 5743 5740 5738 5735 5733 5730 5727
5791 5792 5793 5794 5795 5796 5798 5799 5800 5801 5801 5800 5800 5800 5798 5797 5795 5793 5790 5787 5785 5782 5778 5774 5770 5768 5767 5765 5763 5761 5757 5754 5750 5747 5744 5740 5737 5734 5731 5729 5726 5723 5720
5781 5783 5784 5783 5785 5786 5788 5790 5791 5791 5791 5792 5792 5791 5789 5788 5786 5782 5780 5777 5775 5773 5770 5767 5763 5761 5760 5759 5756 5754 5750 5747 5743 5740 5736 5734 5731 5728 5725 5722 5719 5716 5713
5769 5770 5771 5773 5775 5778 5779 5781 5782 5782 5783 5784 5783 5781 5780 5779 5776 5773 5771 5769 5767 5765 5762 5758 5756 5753 5752 5751 5749 5746 5742 5739 5736 5732 5729 5727 5725 5722 5718 5715 5712 5709 5706
5759 5761 5764 5765 5767 5769 5771 5771 5772 5773 5773 5774 5773 5771 5770 5769 5766 5764 5762 5759 5756 5754 5752 5751 5747 5746 5744 5742 5740 5738 5735 5731 5728 5725 5722 5720 5717 5714 5712 5709 5706 5703 5700
5747 5750 5753 5755 5757 5758 5759 5762 5762 5763 5764 5763 5763 5762 5761 5759 5757 5755 5753 5751 5747 5744 5743 5741 5739 5738 5736 5735 5733 5730 5726 5724 5721 5718 5715 5713 5710 5708 5705 5702 5698 5695 5692
5738 5741 5743 5745 5746 5748 5749 5750 5751 5752 5752 5752 5753 5751 5750 5748 5747 5745 5743 5741 5738 5734 5733 5733 5730 5730 5728 5727 5724 5722 5719 5716 5713 5711 5708 5705 5703 5700 5697 5694 5690 5687 5684
5728 5730 5733 5734 5735 5736 5737 5738 5740 5740 5741 5741 5741 5741 5739 5737 5736 5735 5732 5730 5729 5726 5725 5725 5723 5722 5720 5718 5716 5714 5712 5709 5707 5704 5701 5699 5696 5693 5690 5686 5682 5679 5675
5717 5720 5721 5723 5724 5726 5727 5728 5729 5730 5731 5730 5730 5730 5729 5727 5726 5723 5722 5721 5720 5718 5717 5717 5715 5714 5712 5710 5708 5707 5705 5702 5700 5697 5694 5691 5688 5685 5681 5678 5674 5670 5665
5706 5707 5710 5711 5713 5714 5715 5717 5718 5719 5719 5719 5719 5719 5718 5716 5716 5715 5712 5712 5712 5708 5709 5709 5707 5706 5704 5702 5701 5699 5697 5695 5692 5690 5686 5683 5681 5676 5673 5669 5665 5661 5656
5694 5696 5698 5700 5702 5702 5704 5705 5706 5707 5707 5708 5709 5708 5708 5707 5706 5705 5704 5703 5703 5701 5702 5701 5699 5698 5696 5695 5693 5691 5689 5687 5685 5682 5678 5675 5671 5668 5664 5660 5655 5650 5645
5683 5686 5687 5689 5690 5691 5691 5692 5693 5695 5696 5697 5697 5698 5697 5697 5696 5695 5695 5696 5695 5694 5694 5692 5692 5690 5689 5687 5685 5683 5682 5679 5676 5673 5670 5666 5663 5658 5654 5650 5645 5640 5634
5672 5674 5676 5677 5679 5680 5680 5682 5683 5683 5683 5685 5686 5686 5687 5688 5687 5686 5687 5687 5687 5686 5686 5685 5684 5683 5681 5679 5677 5676 5673 5671 5668 5665 5662 5657 5653 5649 5644 5639 5633 5628 5622
5661 5662 5664 5666 5668 5670 5670 5670 5673 5672 5672 5673 5676 5676 5678 5677 5678 5678 5678 5679 5679 5678 5678 5677 5676 5675 5673 5671 5669 5668 5665 5663 5659 5656 5652 5648 5643 5638 5633 5628 5623 5616 5611
5651 5651 5653 5654 5656 5658 5659 5659 5660 5662 5662 5664 5665 5666 5668 5669 5668 5670 5670 5671 5671 5671 5670 5669 5668 5667 5665 5663 5661 5659 5657 5654 5651 5647 5643 5638 5633 5627 5622 5616 5612 5606 5599